Regional Weather Roundup
Issued by NWS Albany, NY

Home | Current Version | Previous Version | Text Only | Print | Product List | Glossary On
Versions: 1 2 3 4 5 6 7 8 9 10 11 12 13 14 15 16 17 18 19 20 21 22 23 24 25 26 27 28 29 30 31 32 33 34 35 36 37 38 39 40 41 42 43 44 45 46 47 48 49 50
000
ASUS41 KALY 290110
RWRALY

NEW YORK STATE HOURLY WEATHER ROUNDUP
NATIONAL WEATHER SERVICE ALBANY NY
900 PM EDT THU AUG 28 2014

NOTE: "FAIR" INDICATES FEW OR NO CLOUDS BELOW 12,000 FEET WITH NO
SIGNIFICANT WEATHER AND/OR NO OBSTRUCTIONS TO VISIBILITY.

NYZ032-033-038>043-046>054-057>066-NYZ062>081-290200-
EAST


CITY           SKY/WX    TMP DP  RH WIND       PRES   REMARKS
ALBANY         MOCLDY    66  52  60 NW9       30.03R
GLENS FALLS    MOCLDY    65  48  54 NW9       30.02R
POUGHKEEPSIE   MOCLDY    69  50  50 NW8G17    30.01R
MONTGOMERY     CLEAR     65  48  54 NW8       30.03R
WHITE PLAINS   PTCLDY    67  51  56 NW7       30.00R
ISLIP          PTCLDY    72  50  45 N13       29.96R
NEW YORK CITY  PTCLDY    73  52  47 NW15G28   29.98R
CENTRAL PARK   CLEAR     73  48  41 VRB3G20   30.03R
$$

NYZ005>009-017-018-044>046-055-056-290200-
CENTRAL


CITY           SKY/WX    TMP DP  RH WIND       PRES   REMARKS
FULTON         PTCLDY    61  55  81 W6        30.08R
SYRACUSE       MOCLDY    63  53  70 W8        30.08R
ROME           CLOUDY    62  54  74 NW5       30.09R
ELMIRA         CLEAR     55  50  83 CALM      30.12R
BINGHAMTON     CLEAR     58  49  72 NW7       30.11R
MONTICELLO     CLEAR     55  46  71 NW7       30.09R
$$

NYZ026>034-041>043-290200-
NORTH


CITY           SKY/WX    TMP DP  RH WIND       PRES   REMARKS
WATERTOWN      CLEAR     61  49  64 NE5       30.08R
FORT DRUM      NOT AVBL
MASSENA        CLEAR     60  53  77 W6        30.07R
SARANAC LAKE   CLOUDY    57  49  74 VRB5      30.06R
PLATTSBURGH    CLOUDY    63  51  65 NW5       30.02R
$$

NYZ001>004-010>016-019>021-290200-
WEST


CITY           SKY/WX    TMP DP  RH WIND       PRES   REMARKS
NIAGARA FALLS  PTCLDY    58  47  66 CALM      30.11R
BUFFALO        PTCLDY    65  45  48 CALM      30.12R
DUNKIRK        CLEAR     57  51  80 S6        30.13R
JAMESTOWN      CLEAR     57  45  62 NW3       30.15R
WELLSVILLE     CLEAR     57  44  62 N5        30.17R
ROCHESTER      PTCLDY    59  51  75 W3        30.11R
PENN YAN       CLEAR     58  51  78 SW3       30.12R
$$

             KEY
       WCI = WIND CHILL INDEX
       VSB = VISIBILITY
       HX  = HEAT INDEX
$$



USA.gov is the U.S. government's official web portal to all federal, state and local government web resources and services.